{"data":{"norad_id":60118,"intl_designator":"2024-118F","name":"STARLINK-11177 [DTC]","alt_names":[],"object_type":"PAYLOAD","status":"ACTIVE","operator":null,"country":"US","launch_date":"2024-06-24","launch_site_code":"AFWTR","launch_vehicle":null,"mission":null,"orbit_class":"UNKNOWN","rcs_meters":null,"size_class":null,"mass_kg":null,"dimensions":null,"purposes":["comms"],"wikipedia_slug":null,"has_3d_model":false,"image_url":null,"decayed_at":null,"tle_current":{"epoch":"2026-05-25T03:52:25.112064Z","epoch_age_seconds":71546,"freshness":"FRESH","line1":"1 60118U 24118F   26145.16140176  .00000104  00000+0  57194-5 0  9991","line2":"2 60118  53.1590 204.3143 0001069  75.9774 284.1362 15.69705804110006","mean_motion":15.69705804,"eccentricity":0.0001069,"inclination_deg":53.159,"raan_deg":204.3143,"arg_perigee_deg":75.9774,"mean_anomaly_deg":284.1362,"bstar":5.7194e-6,"rev_number":11000,"period_min":91.736935439146,"perigee_km":359.01847887388,"apogee_km":360.45903671089,"semimajor_km":6737.8757577924,"source":"CELESTRAK","updated_at":"2026-05-25T13:38:19.166307Z"}}}